Clarksville, TN

1:33 AM CDT on August 20, 2017 (GMT -0500)
Outlaw

Weather History for KCKV - December, 2014

Change the Weather History Date:

Monday, December 22, 2014

  Actual Average Record
Temperature  
Mean Temperature 44 °F 37 °F  
Max Temperature 53 °F 47 °F 67 °F (1984)
Min Temperature 35 °F 28 °F -12 °F (1989)
Degree Days  
Heating Degree Days 21    
Month to date heating degree days 514  
Since 1 July heating degree days 1405  
Cooling Degree Days 0    
Month to date cooling degree days 0  
Year to date cooling degree days  
Moisture  
Dew Point 45 °F    
Average Humidity 88    
Maximum Humidity 100    
Minimum Humidity 76    
Precipitation  
Precipitation 0.19 in 0.16 in 2.24 in (2004)
Month to date precipitation 2.57 3.81  
Year to date precipitation 48.96  
Sea Level Pressure  
Sea Level Pressure 29.80 in    
Wind  
Wind Speed 9 mph (SSE)    
Max Wind Speed 18 mph    
Max Gust Speed 22 mph    
Visibility 9 miles    
Events Rain , Thunderstorm    
T = Trace of Precipitation, MM = Missing Value Source: NWS Daily Summary

Daily Weather History Graph

Daily Weather History Graph

Search for Another Location

Airport or City:

Trip Planner

Search our weather history database for the weather conditions in past years. The results will help you decide how hot, cold, wet, or windy it might be!

Date:

Astronomy

Dec. 22, 2014 Rise Set
Actual Time 6:58 AM CST 4:38 PM CST
Civil Twilight 6:29 AM CST 5:06 PM CST
Nautical Twilight 5:57 AM CST 5:39 PM CST
Astronomical Twilight 5:25 AM CST 6:10 PM CST
Moon 7:13 AM CST (12/22) 5:43 PM CST (12/22)
Length of Visible Light 10h 37m
Length of Day
9h 39m
New Moon, 1% of the Moon is Illuminated
Dec 22
New Moon
Dec 28
First Quarter
Jan 4
Full
Jan 13
Last Quarter
Jan 20
New

Hourly Weather History & Observations

Time (CST) Temp. Windchill Dew Point Humidity Pressure Visibility Wind Dir Wind Speed Gust Speed Precip Events Conditions
12:52 AM 37.0 °F - 30.9 °F 79% 29.97 in 10.0 mi Calm Calm - N/A   Overcast
1:52 AM 37.0 °F 32.4 °F 33.1 °F 86% 29.97 in 10.0 mi SE 5.8 mph - N/A   Overcast
2:32 AM 42.1 °F 39.2 °F 37.9 °F 85% 29.95 in 10.0 mi SSE 4.6 mph - N/A   Overcast
2:48 AM 42.8 °F 38.6 °F 37.4 °F 81% 29.94 in 10.0 mi SE 6.9 mph - N/A   Overcast
2:52 AM 42.1 °F 37.7 °F 37.9 °F 85% 29.94 in 10.0 mi SE 6.9 mph - N/A   Overcast
3:52 AM 44.1 °F 40.1 °F 41.0 °F 89% 29.94 in 10.0 mi SSE 6.9 mph - N/A   Overcast
4:52 AM 42.1 °F 37.7 °F 39.9 °F 92% 29.93 in 8.0 mi SE 6.9 mph - N/A   Mostly Cloudy
5:01 AM 43.0 °F 38.8 °F 41.0 °F 93% 29.92 in 9.0 mi SE 6.9 mph - N/A   Overcast
5:52 AM 45.0 °F 40.6 °F 42.1 °F 90% 29.92 in 9.0 mi SE 8.1 mph - N/A   Overcast
6:52 AM 46.0 °F 41.4 °F 43.0 °F 89% 29.91 in 9.0 mi SE 9.2 mph - N/A   Overcast
7:42 AM 48.0 °F - 45.0 °F 89% 29.92 in 9.0 mi South 6.9 mph - N/A   Overcast
7:52 AM 48.0 °F - 45.0 °F 89% 29.92 in 9.0 mi South 5.8 mph - N/A   Overcast
8:35 AM 48.9 °F - 45.0 °F 86% 29.90 in 9.0 mi SSE 9.2 mph - N/A   Overcast
8:52 AM 50.0 °F - 46.0 °F 86% 29.90 in 9.0 mi SE 6.9 mph - N/A   Overcast
9:52 AM 51.1 °F - 46.0 °F 83% 29.88 in 10.0 mi SE 15.0 mph - N/A   Overcast
10:27 AM 51.1 °F - 46.0 °F 83% 29.86 in 10.0 mi SSE 11.5 mph - N/A   Overcast
10:45 AM 51.1 °F - 46.0 °F 83% 29.85 in 10.0 mi SSE 10.4 mph - N/A   Overcast
10:52 AM 51.1 °F - 46.0 °F 83% 29.84 in 10.0 mi SSE 11.5 mph - N/A   Overcast
11:52 AM 52.0 °F - 46.0 °F 80% 29.81 in 10.0 mi SSE 12.7 mph - N/A   Overcast
12:52 PM 53.1 °F - 46.9 °F 80% 29.77 in 10.0 mi SSE 9.2 mph - N/A   Overcast
1:52 PM 53.1 °F - 46.9 °F 80% 29.73 in 10.0 mi SE 13.8 mph - N/A   Overcast
2:52 PM 53.1 °F - 46.9 °F 80% 29.72 in 10.0 mi SSE 11.5 mph 21.9 mph N/A   Overcast
3:52 PM 53.1 °F - 46.9 °F 80% 29.71 in 10.0 mi SSE 12.7 mph 19.6 mph N/A   Overcast
4:19 PM 53.1 °F - 46.9 °F 80% 29.70 in 10.0 mi SSE 11.5 mph - N/A   Overcast
4:33 PM 53.1 °F - 46.9 °F 80% 29.69 in 10.0 mi SSE 10.4 mph 20.7 mph N/A   Overcast
4:52 PM 53.1 °F - 46.9 °F 80% 29.69 in 10.0 mi SE 11.5 mph - N/A   Overcast
5:03 PM 53.1 °F - 48.0 °F 83% 29.68 in 10.0 mi SSE 12.7 mph - N/A   Overcast
5:52 PM 53.1 °F - 48.0 °F 83% 29.68 in 10.0 mi SSE 13.8 mph - N/A   Overcast
6:52 PM 52.0 °F - 48.9 °F 89% 29.68 in 10.0 mi SSE 12.7 mph - 0.00 in Rain Light Rain
7:26 PM 52.0 °F - 48.9 °F 89% 29.66 in 10.0 mi SSE 13.8 mph 20.7 mph 0.02 in Thunderstorm Overcast
7:52 PM 52.0 °F - 48.9 °F 89% 29.65 in 10.0 mi SSE 12.7 mph - 0.02 in Thunderstorm Overcast
8:02 PM 52.0 °F - 50.0 °F 93% 29.68 in 2.5 mi WNW 8.1 mph 18.4 mph 0.09 in Rain Heavy Rain
8:10 PM 52.0 °F - 50.0 °F 93% 29.67 in 3.0 mi SSE 5.8 mph - 0.11 in Rain Light Rain
8:52 PM 52.0 °F - 51.1 °F 97% 29.69 in 10.0 mi South 4.6 mph - 0.16 in   Overcast
9:52 PM 53.1 °F - 51.1 °F 93% 29.68 in 10.0 mi SSE 9.2 mph - N/A   Overcast
10:52 PM 53.1 °F - 51.1 °F 93% 29.68 in 10.0 mi SSE 9.2 mph - 0.01 in   Overcast
11:52 PM 53.1 °F - 51.1 °F 93% 29.67 in 10.0 mi SSE 8.1 mph - N/A   Overcast